Tracking 33470 objects as of 12-Mar-2026
HD Live streaming from Space Station
objects crossing your sky now

ATLAS CENTAUR 2 DEB

Track ATLAS CENTAUR 2 DEB now!
10-day predictions


NORAD ID: 701
Int'l Code: 1963-047G
Perigee: 590.0 km
Apogee: 1,329.6 km
Inclination: 30.0 °
Period: 104.1 minutes
Semi major axis: 7330 km
RCS: 0.6207 m2 (medium)
Launch date: November 27, 1963
Source: United States (US)
Launch site: AIR FORCE EASTERN TEST RANGE (AFETR)

Note: This is SATELLITE DEBRIS
Your satellite tracking list
Your tracking list is empty




NASA's NSSDC Master Catalog

Two Line Element Set (TLE):
1 00701U 63047G   26070.57477723  .00002520  00000-0  81147-3 0  9998
2 00701  30.0099 264.3775 0504422 168.8478 192.3767 13.83166129 96699
Source of the keplerian elements: AFSPC